Weather History for Amritsar, India

Change the Weather History Date:

Thursday, February 7, 2013

  Actual Average Record
Temperature  
Mean Temperature 53 °F -  
Max Temperature 67 °F 66 °F 75 °F (2006)
Min Temperature 39 °F 43 °F 33 °F (2005)
Degree Days  
Heating Degree Days 12    
Growing Degree Days 3 (Base 50)    
Moisture  
Dew Point 50 °F    
Average Humidity 91    
Maximum Humidity 100    
Minimum Humidity 64    
Precipitation  
Precipitation 0.00 in - - ()
Sea Level Pressure  
Sea Level Pressure 30.10 in    
Wind  
Wind Speed 2 mph ()    
Max Wind Speed 9 mph    
Max Gust Speed -    
Visibility 2.0 miles    
Events Fog    
Averages and records for this station are not official NWS values.
T = Trace of Precipitation, MM = Missing Value Source: Averaged Metar Reports

Daily Weather History Graph

Daily Weather History Graph

Search for Another Location

Airport:

Trip Planner

Search our weather history database for the weather conditions in past years. The results will help you decide how hot, cold, wet, or windy it might be!

Date:

Astronomy

Feb. 07, 2013 Rise Set
Actual Time 7:19 AM IST 6:10 PM IST
Civil Twilight 6:54 AM IST 6:35 PM IST
Nautical Twilight 6:25 AM IST 7:04 PM IST
Astronomical Twilight 5:57 AM IST 7:33 PM IST
Moon 4:28 AM IST (2/7) 3:10 PM IST (2/7)
Length of Visible Light 11h 41m
Length of Day
10h 50m
Waning Crescent, 12% of the Moon is Illuminated
Feb 7
Waning Crescent
Feb 10
New
Feb 18
First Quarter
Feb 26
Full
Mar 5
Last Quarter

Hourly Weather History & Observations

Time (IST) Temp. Dew Point Humidity Pressure Visibility Wind Dir Wind Speed Gust Speed Precip Events Conditions
12:00 AM 48.2 °F 48.2 °F 100% 30.12 in 2.5 mi Calm Calm - N/A   Mist
12:30 AM 48.2 °F 48.2 °F 100% 30.12 in 1.9 mi Calm Calm - N/A   Mist
1:00 AM 48.2 °F 48.2 °F 100% 30.09 in 1.2 mi Variable 1.2 mph - N/A   Mist
1:30 AM 48.2 °F 48.2 °F 100% 30.09 in 1.2 mi Calm Calm - N/A   Mist
2:00 AM 48.2 °F 48.2 °F 100% 30.09 in 1.2 mi Calm Calm - N/A   Mist
2:30 AM 46 °F 46 °F 99% 30.12 in 1 mi Calm Calm - -   Mist
3:00 AM 46.4 °F 46.4 °F 100% 30.09 in 0.9 mi Calm Calm - N/A   Mist
3:30 AM 44.6 °F 44.6 °F 100% 30.09 in 0.9 mi Calm Calm - N/A   Mist
4:00 AM 44.6 °F 44.6 °F 100% 30.09 in 0.9 mi Variable 1.2 mph - N/A   Mist
5:00 AM 44.6 °F 44.6 °F 100% 30.09 in 0.7 mi Calm Calm - N/A   Mist
5:30 AM 44 °F 44 °F 100% 30.12 in 1 mi Calm Calm - -   Mist
5:30 AM 44.6 °F 44.6 °F 100% 30.09 in 0.7 mi Calm Calm - N/A   Mist
6:30 AM 41.0 °F 41.0 °F 100% 30.09 in 0.1 mi Calm Calm - N/A Fog Fog
7:00 AM 41.0 °F 41.0 °F 100% 30.12 in 0.1 mi Calm Calm - N/A Fog Fog
7:30 AM 41.0 °F 41.0 °F 100% 30.12 in 0.1 mi Calm Calm - N/A Fog Fog
8:00 AM 41.0 °F 41.0 °F 100% 30.12 in 0.0 mi Calm Calm - N/A Fog Fog
8:30 AM 42 °F 42 °F 100% 30.17 in 0 mi Calm Calm - - Fog Partial Fog
8:30 AM 42.8 °F 42.8 °F 100% 30.12 in 0.0 mi Calm Calm - N/A Fog Fog
9:00 AM 44.6 °F 44.6 °F 100% 30.15 in - Calm Calm - N/A Fog Fog
9:30 AM 48.2 °F 48.2 °F 100% 30.15 in 0.2 mi Calm Calm - N/A Fog Fog
10:00 AM 51.8 °F 51.8 °F 100% 30.18 in 0.7 mi Variable 2.3 mph - N/A   Mist
11:00 AM 59.0 °F 55.4 °F 88% 30.18 in 3.7 mi Calm Calm - N/A   Unknown
11:30 AM 60 °F 53 °F 72% 30.18 in 2 mi NW 5.8 mph - -  
11:30 AM 60.8 °F 53.6 °F 77% 30.18 in 3.7 mi NW 5.8 mph - N/A   Unknown
12:00 PM 62.6 °F 53.6 °F 72% 30.18 in 3.7 mi NW 5.8 mph - N/A   Unknown
12:30 PM 62.6 °F 53.6 °F 72% 30.15 in 3.7 mi West 6.9 mph - N/A   Unknown
1:00 PM 62.6 °F 53.6 °F 72% 30.15 in 3.7 mi WNW 6.9 mph - N/A   Unknown
1:30 PM 62.6 °F 53.6 °F 72% 30.12 in 3.7 mi WNW 8.1 mph - N/A   Unknown
2:00 PM 64.4 °F 53.6 °F 68% 30.09 in 3.7 mi WNW 6.9 mph - N/A   Unknown
2:30 PM 64.4 °F 53.6 °F 68% 30.09 in 3.7 mi WNW 6.9 mph - N/A   Unknown
3:00 PM 64.4 °F 51.8 °F 64% 30.09 in 3.7 mi NW 8.1 mph - N/A   Unknown
3:30 PM 66.2 °F 53.6 °F 64% 30.06 in 3.7 mi NW 9.2 mph - N/A   Unknown
4:00 PM 64.4 °F 53.6 °F 68% 30.06 in 3.7 mi NW 6.9 mph - N/A   Unknown
4:30 PM 64.4 °F 53.6 °F 68% 30.06 in 3.7 mi WNW 6.9 mph - N/A   Unknown
5:00 PM 64.4 °F 53.6 °F 68% 30.06 in 3.7 mi WNW 6.9 mph - N/A   Unknown
5:30 PM 63 °F 56 °F 71% 30.05 in 2 mi West 5.8 mph - -   Mist
5:30 PM 62.6 °F 55.4 °F 77% 30.06 in 3.1 mi West 5.8 mph - N/A   Mist
6:00 PM 60.8 °F 57.2 °F 88% 30.06 in 3.1 mi Variable 2.3 mph - N/A   Mist
6:30 PM 59.0 °F 59.0 °F 100% 30.06 in 3.1 mi WNW 3.5 mph - N/A   Mist
7:00 PM 57.2 °F 57.2 °F 100% 30.06 in 2.5 mi Variable 2.3 mph - N/A   Mist
7:30 PM 55.4 °F 55.4 °F 100% 30.06 in 2.5 mi Calm Calm - N/A   Mist
8:00 PM 53.6 °F 53.6 °F 100% 30.06 in 2.2 mi Calm Calm - N/A   Mist
8:30 PM 53 °F 53 °F 98% 30.09 in 1 mi Calm Calm - -   Mist
8:30 PM 51.8 °F 51.8 °F 100% 30.06 in 2.2 mi Calm Calm - N/A   Mist
9:00 PM 51.8 °F 51.8 °F 100% 30.06 in 2.2 mi Calm Calm - N/A   Mist
9:30 PM 51.8 °F 51.8 °F 100% 30.09 in 2.2 mi Calm Calm - N/A   Mist
10:30 PM 48.2 °F 48.2 °F 100% 30.06 in 1.9 mi Calm Calm - N/A   Mist
11:00 PM 50.0 °F 50.0 °F 100% 30.06 in 1.9 mi Calm Calm - N/A   Mist
11:30 PM 48 °F 48 °F 100% 30.09 in 1 mi Calm Calm - -   Mist
11:30 PM 48.2 °F 48.2 °F 100% 30.06 in 1.6 mi Calm Calm - N/A   Mist